Location: Ch�teau-Arnoux
(44.0814°N, 6.0027°E)
Time: 02:20:14
(UTC+00:00)

Cosmos 923 Rocket - Pass Details

Date: 15 November 2019
Orbit: 759 x 785 km, 74.0° (Epoch: 13 December)

Event Time Altitude Azimuth Distance (km) Brightness Sun altitude
Exits shadow 04:34:15 44° 261° (W) 1,047 4.2 -20.9°
Maximum altitude 04:34:23 44° 257° (WSW) 1,045 4.2 -20.8°
Drops below altitude 10° 04:39:19 10° 186° (S) 2,298 6.5 -20.0°
Sets 04:41:46 0° 180° (S) 3,224 7.3 -19.5°
